This demonstration page uses our WeatherBlox Daily Observations layout. Learn more.

Left ArrowRight Arrow

40.97296, -117.73568

Hourly Observations for January 27, 2022

Temp ( °F °C ) Dew Point ( °F °C ) Humidity (%) Winds ( mph kmh ) Pressure ( in mb ) Visibility ( mi km ) Precip ( " mm )
12:56 am 00:56 Clear 17 -8.3 13 -10.6 84 84 Calm 30.43 1030 10 16 0.00 0.00
1:56 am 01:56 Clear 16 -8.9 12 -11.1 84 84 SE 5 7 30.45 1031 10 16 0.00 0.00
2:56 am 02:56 Clear 15 -9.4 11 -11.7 84 84 Calm 30.45 1031 10 16 0.00 0.00
3:56 am 03:56 Clear 15 -9.4 12 -11.1 88 88 SSE 7 11 30.45 1031 10 16 0.00 0.00
4:56 am 04:56 Clear 14 -10 9 -12.8 80 80 Calm 30.47 1032 10 16 0.00 0.00
5:56 am 05:56 Clear 13 -10.6 9 -12.8 84 84 Calm 30.52 1034 10 16 0.00 0.00
6:56 am 06:56 Clear 14 -10 10 -12.2 84 84 SE 6 9 30.55 1035 10 16 0.00 0.00
7:56 am 07:56 Sunny 18 -7.8 14 -10 84 84 SSE 3 6 30.58 1035 10 16 0.00 0.00
8:56 am 08:56 Sunny 27 -2.8 20 -6.7 75 75 Calm 30.56 1035 10 16 0.00 0.00
9:56 am 09:56 Sunny 34 1.1 22 -5.6 61 61 NE 8 13 30.56 1035 10 16 0.00 0.00
10:56 am 10:56 Sunny 39 3.9 21 -6.1 48 48 NE 10 17 30.55 1035 10 16 0.00 0.00
11:56 am 11:56 Sunny 43 6.1 22 -5.6 43 43 ENE 9 15 30.52 1034 10 16 0.00 0.00
12:56 pm 12:56 Sunny 45 7.2 19 -7.2 35 35 NE 14 22 30.50 1033 10 16 0.00 0.00
1:56 pm 13:56 Sunny 47 8.3 17 -8.3 30 30 NE 15 24 30.48 1032 10 16 0.00 0.00
2:56 pm 14:56 Sunny 47 8.3 13 -10.6 25 25 NNE 17 28 30.49 1032 10 16 0.00 0.00
3:56 pm 15:56 Sunny 45 7.2 12 -11.1 26 26 NNE 14 22 30.50 1033 10 16 0.00 0.00
4:56 pm 16:56 Sunny 39 3.9 14 -10 36 36 N 13 20 30.53 1034 10 16 0.00 0.00
5:56 pm 17:56 Clear 35 1.7 15 -9.4 44 44 NE 5 7 30.56 1035 10 16 0.00 0.00
6:56 pm 18:56 Clear 32 0 16 -8.9 52 52 Calm 30.58 1036 10 16 0.00 0.00
7:56 pm 19:56 Clear 33 0.6 19 -7.2 56 56 NE 17 28 30.58 1036 10 16 0.00 0.00
8:56 pm 20:56 Clear 32 0 19 -7.2 59 59 ENE 13 20 30.58 1035 10 16 0.00 0.00
9:56 pm 21:56 Clear 29 -1.7 20 -6.7 69 69 ENE 14 22 30.56 1035 10 16 0.00 0.00
10:56 pm 22:56 Clear 29 -1.7 19 -7.2 66 66 NE 13 20 30.57 1035 10 16 0.00 0.00
11:56 pm 23:56 Clear 28 -2.2 18 -7.8 66 66 NE 15 24 30.56 1035 10 16 0.00 0.00

Powered by AerisWeather